| time (UTC) | temp F | wind direction | speed MPH | gust MPH | rain 1hr in | rain 24hr in | rain mn in | humidity % | barometer mb |
| 20260509160539 | 61 | 182 | 2.0 | 4.0 | 0.00 | 0.00 | 0.00 | 69 | 1006.4 |
| 20260509160018 | 61 | 171 | 1.0 | 5.0 | 0.00 | 0.00 | 0.00 | 69 | 1006.5 |
| 20260509155603 | 62 | 152 | 2.0 | 5.0 | 0.00 | 0.00 | 0.00 | 70 | 1006.4 |
| 20260509155039 | 62 | 182 | 2.0 | 5.0 | 0.00 | 0.00 | 0.00 | 69 | 1006.4 |
| 20260509154516 | 62 | 184 | 3.0 | 5.0 | 0.00 | 0.00 | 0.00 | 69 | 1006.5 |
| 20260509154041 | 62 | 173 | 0.0 | 7.0 | 0.00 | 0.00 | 0.00 | 70 | 1006.5 |
| 20260509153518 | 61 | 202 | 3.0 | 7.0 | 0.00 | 0.00 | 0.00 | 70 | 1006.5 |
| 20260509153018 | 61 | 168 | 1.0 | 6.0 | 0.00 | 0.00 | 0.00 | 72 | 1006.5 |
| 20260509152525 | 61 | 137 | 2.0 | 6.0 | 0.00 | 0.00 | 0.00 | 71 | 1006.6 |
| 20260509152032 | 61 | 134 | 2.0 | 6.0 | 0.00 | 0.00 | 0.00 | 70 | 1006.6 |
| 20260509151544 | 61 | 160 | 2.0 | 6.0 | 0.00 | 0.00 | 0.00 | 71 | 1006.7 |
| 20260509151019 | 61 | 156 | 2.0 | 7.0 | 0.00 | 0.00 | 0.00 | 71 | 1006.7 |
| 20260509150544 | 61 | 96 | 4.0 | 7.0 | 0.00 | 0.00 | 0.00 | 69 | 1006.7 |
| 20260509150026 | 61 | 167 | 1.0 | 7.0 | 0.00 | 0.00 | 0.00 | 72 | 1006.7 |
| 20260509145517 | 61 | 104 | 4.0 | 7.0 | 0.00 | 0.00 | 0.00 | 72 | 1006.8 |
| 20260509145023 | 61 | 197 | 1.0 | 7.0 | 0.00 | 0.00 | 0.00 | 71 | 1006.8 |
| 20260509144517 | 61 | 121 | 3.0 | 7.0 | 0.00 | 0.00 | 0.00 | 71 | 1006.9 |
| 20260509144020 | 61 | 120 | 1.0 | 8.0 | 0.00 | 0.00 | 0.00 | 71 | 1007.0 |
| 20260509143518 | 60 | 155 | 4.0 | 8.0 | 0.00 | 0.00 | 0.00 | 73 | 1007.1 |
| 20260509143024 | 60 | 116 | 1.0 | 7.0 | 0.00 | 0.00 | 0.00 | 71 | 1007.1 |
| 20260509142542 | 60 | 133 | 2.0 | 7.0 | 0.00 | 0.00 | 0.00 | 73 | 1007.0 |
| 20260509142023 | 60 | 129 | 3.0 | 6.0 | 0.00 | 0.00 | 0.00 | 74 | 1007.0 |
| 20260509141541 | 59 | 192 | 3.0 | 5.0 | 0.00 | 0.00 | 0.00 | 73 | 1007.0 |
| 20260509141044 | 59 | 140 | 1.0 | 6.0 | 0.00 | 0.00 | 0.00 | 75 | 1007.0 |
| 20260509140542 | 59 | 141 | 2.0 | 6.0 | 0.00 | 0.00 | 0.00 | 73 | 1007.1 |
| 20260509140030 | 58 | 159 | 2.0 | 4.0 | 0.00 | 0.00 | 0.00 | 75 | 1007.2 |
| 20260509135523 | 58 | 154 | 3.0 | 5.0 | 0.00 | 0.01 | 0.00 | 75 | 1007.3 |
| 20260509135032 | 58 | 153 | 2.0 | 6.0 | 0.00 | 0.01 | 0.00 | 77 | 1007.4 |
| 20260509134523 | 57 | 134 | 3.0 | 6.0 | 0.00 | 0.01 | 0.00 | 77 | 1007.4 |
| 20260509134033 | 57 | 115 | 3.0 | 7.0 | 0.00 | 0.01 | 0.00 | 77 | 1007.4 |
| 20260509133522 | 56 | 138 | 3.0 | 5.0 | 0.00 | 0.01 | 0.00 | 79 | 1007.5 |
| 20260509133032 | 56 | 143 | 0.0 | 6.0 | 0.00 | 0.01 | 0.00 | 80 | 1007.6 |
| 20260509132602 | 55 | 143 | 2.0 | 6.0 | 0.00 | 0.01 | 0.00 | 81 | 1007.6 |
| 20260509132028 | 54 | 139 | 1.0 | 6.0 | 0.00 | 0.01 | 0.00 | 81 | 1007.7 |
| 20260509131534 | 54 | 140 | 3.0 | 6.0 | 0.00 | 0.01 | 0.00 | 81 | 1007.8 |
| 20260509131107 | 53 | 138 | 0.0 | 6.0 | 0.00 | 0.01 | 0.00 | 81 | 1007.8 |
| 20260509130516 | 53 | 138 | 2.0 | 6.0 | 0.00 | 0.01 | 0.00 | 81 | 1007.9 |
| 20260509130017 | 52 | 124 | 3.0 | 8.0 | 0.00 | 0.03 | 0.00 | 82 | 1007.9 |
| 20260509125527 | 52 | 123 | 3.0 | 6.0 | 0.00 | 0.03 | 0.00 | 82 | 1007.9 |
| 20260509125024 | 52 | 132 | 2.0 | 6.0 | 0.00 | 0.03 | 0.00 | 82 | 1008.0 |
| 20260509124530 | 51 | 131 | 2.0 | 6.0 | 0.00 | 0.03 | 0.00 | 83 | 1007.9 |
| 20260509124033 | 51 | 134 | 3.0 | 6.0 | 0.00 | 0.03 | 0.00 | 82 | 1007.9 |
| 20260509123544 | 51 | 134 | 1.0 | 4.0 | 0.00 | 0.03 | 0.00 | 82 | 1007.9 |
| 20260509123017 | 50 | 137 | 2.0 | 5.0 | 0.00 | 0.03 | 0.00 | 83 | 1008.0 |
| 20260509122547 | 50 | 134 | 3.0 | 5.0 | 0.00 | 0.03 | 0.00 | 83 | 1008.0 |
| 20260509122018 | 49 | 132 | 3.0 | 5.0 | 0.00 | 0.03 | 0.00 | 84 | 1008.0 |
| 20260509121522 | 49 | 120 | 2.0 | 4.0 | 0.00 | 0.03 | 0.00 | 85 | 1008.1 |
| 20260509121031 | 48 | 125 | 1.0 | 5.0 | 0.00 | 0.03 | 0.00 | 86 | 1008.1 |
| 20260509120537 | 48 | 129 | 2.0 | 5.0 | 0.00 | 0.03 | 0.00 | 86 | 1008.1 |
| 20260509120021 | 47 | 136 | 2.0 | 6.0 | 0.00 | 0.03 | 0.00 | 86 | 1008.1 |
| 20260509115533 | 46 | 135 | 3.0 | 5.0 | 0.00 | 0.03 | 0.00 | 86 | 1008.0 |
| 20260509115047 | 46 | 137 | 2.0 | 5.0 | 0.00 | 0.03 | 0.00 | 86 | 1008.1 |
| 20260509114517 | 46 | 119 | 1.0 | 7.0 | 0.00 | 0.03 | 0.00 | 86 | 1008.2 |
| 20260509114035 | 45 | 113 | 3.0 | 7.0 | 0.00 | 0.03 | 0.00 | 86 | 1008.2 |
| 20260509113535 | 45 | 136 | 0.0 | 2.0 | 0.00 | 0.03 | 0.00 | 86 | 1008.1 |
| 20260509113040 | 45 | 136 | 0.0 | 5.0 | 0.00 | 0.03 | 0.00 | 86 | 1008.2 |
| 20260509112540 | 45 | 136 | 2.0 | 5.0 | 0.00 | 0.03 | 0.00 | 86 | 1008.1 |
| 20260509112022 | 44 | 126 | 2.0 | 7.0 | 0.00 | 0.03 | 0.00 | 86 | 1008.1 |
| 20260509111545 | 44 | 117 | 3.0 | 7.0 | 0.00 | 0.03 | 0.00 | 86 | 1008.1 |
| 20260509111021 | 44 | 138 | 3.0 | 8.0 | 0.00 | 0.03 | 0.00 | 86 | 1008.1 |
| 20260509110516 | 43 | 132 | 4.0 | 8.0 | 0.00 | 0.03 | 0.00 | 87 | 1008.2 |
| 20260509110018 | 43 | 124 | 4.0 | 8.0 | 0.00 | 0.03 | 0.00 | 87 | 1008.1 |
| 20260509105539 | 43 | 138 | 4.0 | 6.0 | 0.00 | 0.03 | 0.00 | 87 | 1008.1 |
| 20260509105016 | 42 | 132 | 3.0 | 5.0 | 0.00 | 0.03 | 0.00 | 87 | 1008.1 |
| 20260509104544 | 42 | 134 | 1.0 | 4.0 | 0.00 | 0.03 | 0.00 | 87 | 1008.1 |
| 20260509104030 | 42 | 134 | 2.0 | 5.0 | 0.00 | 0.03 | 0.00 | 87 | 1008.1 |
| 20260509103517 | 41 | 140 | 1.0 | 5.0 | 0.00 | 0.03 | 0.00 | 87 | 1008.1 |
| 20260509103040 | 41 | 124 | 2.0 | 4.0 | 0.00 | 0.03 | 0.00 | 87 | 1008.1 |
| 20260509102517 | 41 | 122 | 0.0 | 4.0 | 0.00 | 0.03 | 0.00 | 87 | 1008.1 |
| 20260509102016 | 41 | 127 | 1.0 | 4.0 | 0.00 | 0.03 | 0.00 | 86 | 1008.1 |
| 20260509101548 | 40 | 148 | 1.0 | 3.0 | 0.00 | 0.03 | 0.00 | 86 | 1008.1 |
| 20260509101037 | 40 | 135 | 0.0 | 0.0 | 0.00 | 0.03 | 0.00 | 86 | 1008.0 |
| 20260509100532 | 41 | 136 | 0.0 | 0.0 | 0.00 | 0.03 | 0.00 | 86 | 1008.0 |
| 20260509100044 | 41 | 136 | 0.0 | 0.0 | 0.00 | 0.03 | 0.00 | 86 | 1008.0 |
| 20260509095517 | 41 | 136 | 0.0 | 0.0 | 0.00 | 0.03 | 0.00 | 87 | 1008.1 |
| 20260509095043 | 41 | 136 | 0.0 | 0.0 | 0.00 | 0.03 | 0.00 | 87 | 1008.1 |
| 20260509094519 | 40 | 136 | 0.0 | 0.0 | 0.00 | 0.03 | 0.00 | 87 | 1008.2 |
| 20260509094049 | 40 | 136 | 0.0 | 2.0 | 0.00 | 0.03 | 0.00 | 87 | 1008.1 |
| 20260509093521 | 40 | 136 | 0.0 | 6.0 | 0.00 | 0.03 | 0.00 | 87 | 1008.1 |
| 20260509093037 | 40 | 136 | 3.0 | 6.0 | 0.00 | 0.03 | 0.00 | 87 | 1008.1 |
| 20260509092531 | 40 | 133 | 0.0 | 0.0 | 0.00 | 0.03 | 0.00 | 87 | 1008.0 |
| 20260509092019 | 40 | 133 | 0.0 | 0.0 | 0.00 | 0.03 | 0.00 | 87 | 1008.1 |
| 20260509091543 | 40 | 133 | 0.0 | 0.0 | 0.00 | 0.03 | 0.00 | 87 | 1008.1 |
| 20260509091108 | 40 | 133 | 0.0 | 0.0 | 0.00 | 0.03 | 0.00 | 86 | 1008.1 |
| 20260509090523 | 40 | 133 | 0.0 | 0.0 | 0.00 | 0.03 | 0.00 | 86 | 1008.1 |
| 20260509090046 | 40 | 133 | 0.0 | 0.0 | 0.00 | 0.03 | 0.00 | 86 | 1008.2 |
| 20260509085536 | 40 | 133 | 0.0 | 0.0 | 0.00 | 0.03 | 0.00 | 86 | 1008.2 |
| 20260509085036 | 40 | 133 | 0.0 | 0.0 | 0.00 | 0.03 | 0.00 | 86 | 1008.3 |
| 20260509084528 | 40 | 133 | 0.0 | 3.0 | 0.00 | 0.03 | 0.00 | 86 | 1008.2 |
| 20260509084033 | 40 | 133 | 1.0 | 3.0 | 0.00 | 0.03 | 0.00 | 86 | 1008.3 |
| 20260509083529 | 39 | 136 | 1.0 | 2.0 | 0.00 | 0.03 | 0.00 | 86 | 1008.3 |
| 20260509083049 | 40 | 136 | 0.0 | 0.0 | 0.00 | 0.03 | 0.00 | 85 | 1008.5 |
| 20260509082518 | 39 | 136 | 0.0 | 0.0 | 0.00 | 0.03 | 0.00 | 85 | 1008.6 |
| 20260509082036 | 39 | 136 | 0.0 | 0.0 | 0.00 | 0.03 | 0.00 | 85 | 1008.7 |
| 20260509081532 | 39 | 136 | 0.0 | 0.0 | 0.00 | 0.03 | 0.00 | 85 | 1008.6 |
| 20260509081043 | 39 | 136 | 0.0 | 0.0 | 0.00 | 0.03 | 0.00 | 85 | 1008.6 |
| 20260509080541 | 39 | 136 | 0.0 | 2.0 | 0.00 | 0.03 | 0.00 | 84 | 1008.7 |
| 20260509080034 | 39 | 136 | 0.0 | 3.0 | 0.00 | 0.03 | 0.00 | 84 | 1008.8 |
| 20260509075536 | 39 | 136 | 2.0 | 3.0 | 0.00 | 0.03 | 0.00 | 84 | 1008.7 |
| 20260509075021 | 39 | 136 | 0.0 | 1.0 | 0.00 | 0.03 | 0.00 | 83 | 1008.7 |
| 20260509074529 | 40 | 136 | 0.0 | 0.0 | 0.00 | 0.03 | 0.00 | 82 | 1008.8 |
| 20260509074056 | 40 | 136 | 0.0 | 0.0 | 0.00 | 0.03 | 0.00 | 82 | 1008.8 |
| 20260509073528 | 40 | 136 | 0.0 | 0.0 | 0.00 | 0.03 | 0.00 | 82 | 1008.9 |
| 20260509073029 | 40 | 136 | 0.0 | 0.0 | 0.00 | 0.03 | 0.00 | 81 | 1008.9 |
| 20260509072518 | 40 | 136 | 0.0 | 0.0 | 0.00 | 0.03 | 0.00 | 81 | 1008.9 |
| 20260509072039 | 40 | 136 | 0.0 | 0.0 | 0.00 | 0.03 | 0.00 | 81 | 1008.9 |
| 20260509071522 | 41 | 136 | 0.0 | 0.0 | 0.00 | 0.03 | 0.00 | 80 | 1009.0 |
| 20260509071026 | 41 | 136 | 0.0 | 0.0 | 0.00 | 0.03 | 0.00 | 80 | 1009.0 |
| 20260509070522 | 41 | 136 | 0.0 | 0.0 | 0.00 | 0.03 | 0.00 | 80 | 1009.1 |
| 20260509070027 | 41 | 136 | 0.0 | 0.0 | 0.00 | 0.03 | 0.00 | 79 | 1009.1 |
| 20260509065543 | 42 | 136 | 0.0 | 0.0 | 0.00 | 0.03 | 0.00 | 78 | 1009.1 |
| 20260509065046 | 42 | 136 | 0.0 | 0.0 | 0.00 | 0.03 | 0.00 | 78 | 1009.2 |
| 20260509064517 | 42 | 136 | 0.0 | 0.0 | 0.00 | 0.03 | 0.00 | 78 | 1009.3 |
| 20260509064039 | 42 | 136 | 0.0 | 0.0 | 0.00 | 0.03 | 0.00 | 77 | 1009.4 |
| 20260509063516 | 43 | 136 | 0.0 | 0.0 | 0.00 | 0.03 | 0.00 | 77 | 1009.3 |
| 20260509063037 | 43 | 136 | 0.0 | 0.0 | 0.00 | 0.03 | 0.00 | 77 | 1009.4 |
| 20260509062529 | 43 | 136 | 0.0 | 3.0 | 0.00 | 0.03 | 0.00 | 77 | 1009.4 |
| 20260509062031 | 43 | 136 | 1.0 | 3.0 | 0.00 | 0.03 | 0.00 | 77 | 1009.5 |
| 20260509061524 | 43 | 138 | 0.0 | 5.0 | 0.00 | 0.03 | 0.00 | 77 | 1009.5 |
| 20260509061029 | 42 | 138 | 1.0 | 5.0 | 0.00 | 0.03 | 0.00 | 78 | 1009.5 |
| 20260509060535 | 42 | 142 | 0.0 | 3.0 | 0.00 | 0.03 | 0.00 | 79 | 1009.6 |
| 20260509060056 | 42 | 144 | 1.0 | 3.0 | 0.00 | 0.03 | 0.00 | 80 | 1009.7 |
| 20260509055543 | 42 | 145 | 1.0 | 3.0 | 0.00 | 0.03 | 0.00 | 81 | 1009.7 |
| 20260509055033 | 41 | 145 | 2.0 | 3.0 | 0.00 | 0.03 | 0.00 | 83 | 1009.7 |
| 20260509054559 | 41 | 145 | 1.0 | 4.0 | 0.00 | 0.03 | 0.00 | 84 | 1009.8 |
| 20260509054025 | 40 | 130 | 1.0 | 3.0 | 0.00 | 0.03 | 0.00 | 85 | 1009.9 |
| 20260509053516 | 40 | 130 | 1.0 | 3.0 | 0.00 | 0.03 | 0.00 | 85 | 1010.0 |
| 20260509053031 | 40 | 130 | 0.0 | 0.0 | 0.00 | 0.03 | 0.00 | 85 | 1010.1 |
| 20260509052525 | 40 | 130 | 0.0 | 0.0 | 0.00 | 0.03 | 0.00 | 85 | 1010.1 |
| 20260509052033 | 40 | 130 | 0.0 | 0.0 | 0.00 | 0.03 | 0.00 | 85 | 1010.1 |
| 20260509051522 | 40 | 129 | 0.0 | 0.0 | 0.00 | 0.03 | 0.00 | 85 | 1010.2 |
| 20260509051030 | 40 | 129 | 0.0 | 0.0 | 0.00 | 0.03 | 0.00 | 85 | 1010.2 |
| 20260509050557 | 40 | 129 | 0.0 | 0.0 | 0.00 | 0.03 | 0.00 | 84 | 1010.3 |
| 20260509050026 | 40 | 129 | 0.0 | 0.0 | 0.00 | 0.03 | 0.00 | 84 | 1010.3 |
| 20260509045553 | 40 | 129 | 0.0 | 0.0 | 0.00 | 0.05 | 0.00 | 84 | 1010.3 |
| 20260509045041 | 40 | 129 | 0.0 | 0.0 | 0.00 | 0.05 | 0.00 | 83 | 1010.4 |
| 20260509044606 | 40 | 129 | 0.0 | 0.0 | 0.00 | 0.05 | 0.00 | 83 | 1010.4 |
| 20260509044022 | 40 | 129 | 0.0 | 0.0 | 0.00 | 0.05 | 0.00 | 83 | 1010.5 |
| 20260509043541 | 40 | 129 | 0.0 | 0.0 | 0.00 | 0.05 | 0.00 | 82 | 1010.6 |
| 20260509043042 | 40 | 129 | 0.0 | 0.0 | 0.00 | 0.05 | 0.00 | 82 | 1010.7 |
| 20260509042516 | 41 | 129 | 0.0 | 0.0 | 0.00 | 0.05 | 0.00 | 82 | 1010.7 |
| 20260509042019 | 41 | 129 | 0.0 | 0.0 | 0.00 | 0.05 | 0.00 | 82 | 1010.6 |
| 20260509041534 | 41 | 129 | 0.0 | 0.0 | 0.00 | 0.05 | 0.00 | 81 | 1010.6 |
| 20260509041052 | 41 | 129 | 0.0 | 0.0 | 0.00 | 0.05 | 0.00 | 79 | 1010.5 |
| 20260509040521 | 41 | 129 | 0.0 | 0.0 | 0.00 | 0.05 | 0.00 | 79 | 1010.6 |
| 20260509040036 | 41 | 129 | 0.0 | 0.0 | 0.00 | 0.05 | 0.00 | 79 | 1010.6 |
| 20260509035514 | 41 | 129 | 0.0 | 0.0 | 0.00 | 0.05 | 0.05 | 79 | 1010.7 |
| 20260509035047 | 42 | 129 | 0.0 | 0.0 | 0.00 | 0.05 | 0.05 | 78 | 1010.6 |
| 20260509034523 | 42 | 129 | 0.0 | 0.0 | 0.00 | 0.05 | 0.05 | 78 | 1010.6 |
| 20260509034036 | 42 | 129 | 0.0 | 0.0 | 0.00 | 0.05 | 0.05 | 79 | 1010.6 |
| 20260509033530 | 42 | 129 | 0.0 | 0.0 | 0.00 | 0.05 | 0.05 | 79 | 1010.6 |
| 20260509033020 | 42 | 129 | 0.0 | 0.0 | 0.00 | 0.05 | 0.05 | 78 | 1010.6 |
| 20260509032535 | 42 | 129 | 0.0 | 0.0 | 0.00 | 0.05 | 0.05 | 78 | 1010.6 |
| 20260509032019 | 43 | 129 | 0.0 | 0.0 | 0.00 | 0.05 | 0.05 | 78 | 1010.7 |
| 20260509031531 | 43 | 129 | 0.0 | 0.0 | 0.00 | 0.05 | 0.05 | 78 | 1010.6 |
| 20260509031021 | 43 | 129 | 0.0 | 0.0 | 0.00 | 0.05 | 0.05 | 78 | 1010.7 |
| 20260509030531 | 43 | 129 | 0.0 | 0.0 | 0.00 | 0.05 | 0.05 | 78 | 1010.8 |
| 20260509030020 | 43 | 129 | 0.0 | 0.0 | 0.00 | 0.05 | 0.05 | 78 | 1010.8 |
| 20260509025539 | 44 | 129 | 0.0 | 0.0 | 0.00 | 0.05 | 0.05 | 78 | 1010.7 |
| 20260509025040 | 44 | 129 | 0.0 | 0.0 | 0.00 | 0.05 | 0.05 | 77 | 1010.7 |
| 20260509024546 | 44 | 129 | 0.0 | 0.0 | 0.00 | 0.05 | 0.05 | 76 | 1010.8 |
| 20260509024039 | 44 | 129 | 0.0 | 0.0 | 0.00 | 0.05 | 0.05 | 76 | 1010.7 |
| 20260509023528 | 45 | 129 | 0.0 | 0.0 | 0.00 | 0.05 | 0.05 | 76 | 1010.8 |
| 20260509023033 | 45 | 129 | 0.0 | 1.0 | 0.00 | 0.05 | 0.05 | 75 | 1010.8 |
| 20260509022518 | 45 | 129 | 0.0 | 4.0 | 0.00 | 0.05 | 0.05 | 73 | 1010.8 |
| 20260509022015 | 45 | 129 | 2.0 | 4.0 | 0.00 | 0.05 | 0.05 | 71 | 1010.8 |
| 20260509021537 | 45 | 128 | 2.0 | 4.0 | 0.00 | 0.05 | 0.05 | 71 | 1010.8 |
| 20260509021028 | 46 | 119 | 3.0 | 4.0 | 0.00 | 0.05 | 0.05 | 71 | 1010.8 |
| 20260509020517 | 46 | 96 | 0.0 | 0.0 | 0.00 | 0.05 | 0.05 | 71 | 1010.8 |
| 20260509020023 | 47 | 96 | 0.0 | 0.0 | 0.00 | 0.05 | 0.05 | 70 | 1010.8 |
| 20260509015526 | 47 | 96 | 0.0 | 0.0 | 0.00 | 0.05 | 0.05 | 68 | 1010.8 |
| 20260509015029 | 47 | 96 | 0.0 | 0.0 | 0.00 | 0.05 | 0.05 | 68 | 1010.8 |
| 20260509014520 | 48 | 96 | 0.0 | 0.0 | 0.00 | 0.05 | 0.05 | 67 | 1010.8 |
| 20260509014042 | 48 | 96 | 0.0 | 0.0 | 0.00 | 0.05 | 0.05 | 65 | 1010.8 |
| 20260509013539 | 48 | 96 | 0.0 | 0.0 | 0.00 | 0.05 | 0.05 | 65 | 1010.8 |
| 20260509013028 | 49 | 96 | 0.0 | 0.0 | 0.00 | 0.05 | 0.05 | 65 | 1010.7 |
| 20260509012543 | 49 | 96 | 0.0 | 0.0 | 0.00 | 0.05 | 0.05 | 64 | 1010.6 |
| 20260509012024 | 49 | 88 | 0.0 | 0.0 | 0.00 | 0.05 | 0.05 | 63 | 1010.5 |
| 20260509011523 | 49 | 87 | 0.0 | 0.0 | 0.00 | 0.05 | 0.05 | 63 | 1010.5 |
| 20260509011035 | 50 | 86 | 0.0 | 0.0 | 0.00 | 0.05 | 0.05 | 62 | 1010.4 |
| 20260509010541 | 50 | 71 | 0.0 | 0.0 | 0.00 | 0.05 | 0.05 | 61 | 1010.4 |
| 20260509010028 | 50 | 45 | 0.0 | 0.0 | 0.00 | 0.05 | 0.05 | 60 | 1010.3 |
| 20260509005538 | 51 | 45 | 0.0 | 2.0 | 0.00 | 0.05 | 0.05 | 60 | 1010.2 |
| 20260509005036 | 51 | 45 | 1.0 | 2.0 | 0.00 | 0.05 | 0.05 | 59 | 1010.1 |
| 20260509004546 | 51 | 45 | 0.0 | 0.0 | 0.00 | 0.05 | 0.05 | 58 | 1010.0 |
| 20260509004019 | 52 | 45 | 0.0 | 0.0 | 0.00 | 0.05 | 0.05 | 58 | 1010.0 |
| 20260509003544 | 52 | 45 | 0.0 | 2.0 | 0.00 | 0.05 | 0.05 | 57 | 1010.0 |
| 20260509003021 | 52 | 45 | 0.0 | 2.0 | 0.00 | 0.05 | 0.05 | 56 | 1009.9 |
| 20260509002527 | 53 | 45 | 0.0 | 0.0 | 0.00 | 0.05 | 0.05 | 55 | 1009.9 |
| 20260509002014 | 53 | 45 | 0.0 | 0.0 | 0.00 | 0.05 | 0.05 | 54 | 1009.9 |
| 20260509001522 | 53 | 45 | 0.0 | 1.0 | 0.00 | 0.05 | 0.05 | 53 | 1009.9 |
| 20260509001028 | 53 | 40 | 0.0 | 3.0 | 0.00 | 0.05 | 0.05 | 54 | 1009.8 |
| 20260509000520 | 54 | 34 | 1.0 | 3.0 | 0.00 | 0.05 | 0.05 | 52 | 1009.8 |
| 20260509000024 | 54 | 34 | 0.0 | 1.0 | 0.00 | 0.05 | 0.05 | 53 | 1009.8 |
| 20260508235520 | 54 | 9 | 0.0 | 0.0 | 0.00 | 0.05 | 0.05 | 50 | 1009.8 |
| 20260508235033 | 54 | 9 | 0.0 | 0.0 | 0.00 | 0.05 | 0.05 | 50 | 1009.7 |
| 20260508234545 | 55 | 360 | 0.0 | 0.0 | 0.00 | 0.05 | 0.05 | 49 | 1009.7 |
| 20260508234045 | 55 | 360 | 0.0 | 0.0 | 0.00 | 0.05 | 0.05 | 49 | 1009.6 |
| 20260508233518 | 55 | 360 | 0.0 | 4.0 | 0.00 | 0.05 | 0.05 | 49 | 1009.6 |
| 20260508233023 | 55 | 24 | 2.0 | 4.0 | 0.00 | 0.05 | 0.05 | 49 | 1009.6 |
| 20260508232550 | 56 | 25 | 3.0 | 4.0 | 0.00 | 0.05 | 0.05 | 49 | 1009.6 |
| 20260508232048 | 56 | 360 | 2.0 | 4.0 | 0.00 | 0.05 | 0.05 | 47 | 1009.6 |
| 20260508231522 | 56 | 19 | 2.0 | 4.0 | 0.00 | 0.05 | 0.05 | 48 | 1009.6 |
| 20260508231042 | 57 | 341 | 3.0 | 4.0 | 0.00 | 0.05 | 0.05 | 47 | 1009.6 |
| 20260508230540 | 57 | 340 | 2.0 | 3.0 | 0.00 | 0.05 | 0.05 | 45 | 1009.6 |
| 20260508230043 | 57 | 342 | 0.0 | 0.0 | 0.00 | 0.05 | 0.05 | 44 | 1009.6 |
| 20260508225524 | 57 | 342 | 0.0 | 4.0 | 0.00 | 0.05 | 0.05 | 44 | 1009.6 |
| 20260508225035 | 57 | 342 | 1.0 | 4.0 | 0.00 | 0.05 | 0.05 | 44 | 1009.7 |
| 20260508224546 | 57 | 348 | 1.0 | 5.0 | 0.00 | 0.05 | 0.05 | 44 | 1009.6 |
| 20260508224023 | 57 | 345 | 2.0 | 4.0 | 0.00 | 0.05 | 0.05 | 46 | 1009.6 |
| 20260508223522 | 57 | 42 | 0.0 | 7.0 | 0.00 | 0.05 | 0.05 | 44 | 1009.5 |
| 20260508223018 | 57 | 42 | 3.0 | 7.0 | 0.00 | 0.05 | 0.05 | 44 | 1009.6 |
| 20260508222517 | 57 | 35 | 2.0 | 8.0 | 0.00 | 0.05 | 0.05 | 45 | 1009.5 |
| 20260508222037 | 58 | 25 | 5.0 | 8.0 | 0.00 | 0.05 | 0.05 | 47 | 1009.6 |
| 20260508221539 | 58 | 5 | 3.0 | 5.0 | 0.00 | 0.05 | 0.05 | 46 | 1009.6 |
| 20260508221043 | 58 | 229 | 0.0 | 5.0 | 0.00 | 0.05 | 0.05 | 43 | 1009.6 |
| 20260508220530 | 58 | 273 | 1.0 | 6.0 | 0.00 | 0.05 | 0.05 | 44 | 1009.6 |
| 20260508220018 | 58 | 355 | 4.0 | 6.0 | 0.00 | 0.05 | 0.05 | 44 | 1009.6 |
| 20260508215517 | 57 | 336 | 1.0 | 8.0 | 0.00 | 0.05 | 0.05 | 45 | 1009.7 |
| 20260508215024 | 57 | 5 | 3.0 | 8.0 | 0.00 | 0.05 | 0.05 | 47 | 1009.7 |
| 20260508214523 | 58 | 335 | 3.0 | 10.0 | 0.00 | 0.05 | 0.05 | 45 | 1009.7 |
| 20260508214025 | 58 | 337 | 5.0 | 10.0 | 0.00 | 0.05 | 0.05 | 45 | 1009.6 |
| 20260508213517 | 58 | 14 | 3.0 | 6.0 | 0.00 | 0.05 | 0.05 | 41 | 1009.7 |
| 20260508213031 | 58 | 241 | 2.0 | 6.0 | 0.00 | 0.05 | 0.05 | 43 | 1009.8 |
| 20260508212541 | 57 | 333 | 1.0 | 8.0 | 0.00 | 0.05 | 0.05 | 44 | 1009.8 |
| 20260508212031 | 57 | 261 | 4.0 | 8.0 | 0.00 | 0.05 | 0.05 | 42 | 1009.9 |
| 20260508211534 | 57 | 342 | 3.0 | 6.0 | 0.00 | 0.05 | 0.05 | 45 | 1009.9 |
| 20260508211029 | 57 | 275 | 1.0 | 4.0 | 0.00 | 0.05 | 0.05 | 43 | 1009.8 |
| 20260508210525 | 57 | 340 | 1.0 | 4.0 | 0.00 | 0.05 | 0.05 | 42 | 1009.8 |
| 20260508210033 | 57 | 202 | 2.0 | 4.0 | 0.00 | 0.05 | 0.05 | 46 | 1009.8 |
| 20260508205540 | 56 | 218 | 0.0 | 4.0 | 0.00 | 0.05 | 0.05 | 43 | 1009.9 |
| 20260508205023 | 56 | 280 | 2.0 | 6.0 | 0.00 | 0.05 | 0.05 | 42 | 1010.0 |
| 20260508204546 | 56 | 275 | 2.0 | 7.0 | 0.00 | 0.05 | 0.05 | 45 | 1010.0 |
| 20260508204015 | 56 | 221 | 3.0 | 7.0 | 0.00 | 0.05 | 0.05 | 40 | 1010.1 |
| 20260508203548 | 57 | 284 | 4.0 | 7.0 | 0.00 | 0.05 | 0.05 | 41 | 1010.1 |
| 20260508203028 | 57 | 233 | 2.0 | 6.0 | 0.00 | 0.05 | 0.05 | 48 | 1010.2 |
| 20260508202518 | 56 | 274 | 2.0 | 8.0 | 0.00 | 0.05 | 0.05 | 46 | 1010.3 |
| 20260508202046 | 56 | 279 | 2.0 | 8.0 | 0.00 | 0.05 | 0.05 | 48 | 1010.3 |
| 20260508201520 | 56 | 238 | 1.0 | 8.0 | 0.00 | 0.05 | 0.05 | 47 | 1010.3 |
| 20260508201030 | 56 | 264 | 3.0 | 8.0 | 0.00 | 0.05 | 0.05 | 48 | 1010.4 |
| 20260508200513 | 55 | 340 | 4.0 | 7.0 | 0.00 | 0.05 | 0.05 | 47 | 1010.4 |
| 20260508200037 | 56 | 264 | 1.0 | 5.0 | 0.00 | 0.05 | 0.05 | 47 | 1010.5 |
| 20260508195530 | 56 | 221 | 0.0 | 6.0 | 0.00 | 0.05 | 0.05 | 49 | 1010.5 |
| 20260508195018 | 56 | 263 | 2.0 | 7.0 | 0.00 | 0.05 | 0.05 | 49 | 1010.5 |
| 20260508194533 | 56 | 328 | 2.0 | 7.0 | 0.00 | 0.05 | 0.05 | 47 | 1010.6 |
| 20260508194031 | 56 | 295 | 2.0 | 9.0 | 0.00 | 0.05 | 0.05 | 47 | 1010.7 |
| 20260508193522 | 56 | 296 | 4.0 | 9.0 | 0.00 | 0.05 | 0.05 | 51 | 1010.8 |
| 20260508193032 | 56 | 254 | 5.0 | 8.0 | 0.00 | 0.05 | 0.05 | 50 | 1010.8 |
| 20260508192523 | 55 | 249 | 2.0 | 9.0 | 0.00 | 0.05 | 0.05 | 50 | 1010.9 |
| 20260508192032 | 55 | 258 | 2.0 | 9.0 | 0.00 | 0.05 | 0.05 | 49 | 1010.9 |
| 20260508191536 | 56 | 268 | 3.0 | 6.0 | 0.00 | 0.05 | 0.05 | 51 | 1011.0 |
| 20260508191041 | 55 | 201 | 2.0 | 9.0 | 0.00 | 0.05 | 0.05 | 49 | 1011.0 |
| 20260508190532 | 56 | 219 | 3.0 | 9.0 | 0.00 | 0.05 | 0.05 | 53 | 1011.0 |
| 20260508190023 | 56 | 269 | 2.0 | 9.0 | 0.00 | 0.05 | 0.05 | 52 | 1010.9 |
| 20260508185538 | 55 | 304 | 3.0 | 5.0 | 0.00 | 0.05 | 0.05 | 53 | 1010.9 |
| 20260508185027 | 55 | 203 | 2.0 | 5.0 | 0.00 | 0.05 | 0.05 | 52 | 1011.0 |
| 20260508184517 | 55 | 206 | 3.0 | 7.0 | 0.00 | 0.05 | 0.05 | 56 | 1011.1 |
| 20260508184029 | 56 | 194 | 3.0 | 7.0 | 0.00 | 0.05 | 0.05 | 56 | 1011.0 |
| 20260508183527 | 56 | 247 | 3.0 | 6.0 | 0.00 | 0.05 | 0.05 | 57 | 1011.1 |
| 20260508183035 | 56 | 203 | 3.0 | 7.0 | 0.00 | 0.05 | 0.05 | 59 | 1011.0 |
| 20260508182537 | 55 | 190 | 3.0 | 7.0 | 0.00 | 0.05 | 0.05 | 55 | 1011.0 |
| 20260508182015 | 54 | 148 | 2.0 | 5.0 | 0.00 | 0.05 | 0.05 | 58 | 1011.1 |
| 20260508181540 | 54 | 211 | 3.0 | 6.0 | 0.00 | 0.05 | 0.05 | 58 | 1011.2 |
| 20260508181034 | 54 | 209 | 2.0 | 7.0 | 0.00 | 0.05 | 0.05 | 58 | 1011.2 |
| 20260508180546 | 54 | 192 | 4.0 | 7.0 | 0.00 | 0.05 | 0.05 | 58 | 1011.2 |
| 20260508180044 | 54 | 213 | 3.0 | 5.0 | 0.00 | 0.05 | 0.05 | 59 | 1011.3 |
| 20260508175531 | 54 | 273 | 2.0 | 7.0 | 0.00 | 0.05 | 0.05 | 59 | 1011.3 |
| 20260508175043 | 54 | 209 | 3.0 | 10.0 | 0.00 | 0.05 | 0.05 | 59 | 1011.4 |
| 20260508174518 | 53 | 303 | 4.0 | 10.0 | 0.00 | 0.05 | 0.05 | 58 | 1011.5 |
| 20260508174047 | 53 | 196 | 3.0 | 7.0 | 0.00 | 0.05 | 0.05 | 59 | 1011.5 |
| 20260508173522 | 53 | 197 | 0.0 | 7.0 | 0.00 | 0.05 | 0.05 | 60 | 1011.6 |
| 20260508173056 | 53 | 197 | 2.0 | 9.0 | 0.00 | 0.05 | 0.05 | 62 | 1011.7 |
| 20260508172535 | 53 | 347 | 4.0 | 9.0 | 0.00 | 0.05 | 0.05 | 59 | 1011.7 |
| 20260508172038 | 53 | 225 | 5.0 | 8.0 | 0.00 | 0.05 | 0.05 | 59 | 1011.8 |
| 20260508171528 | 53 | 119 | 1.0 | 3.0 | 0.00 | 0.05 | 0.05 | 62 | 1011.8 |
| 20260508171018 | 53 | 94 | 1.0 | 5.0 | 0.00 | 0.05 | 0.05 | 60 | 1011.8 |
| 20260508170538 | 53 | 194 | 3.0 | 5.0 | 0.00 | 0.05 | 0.05 | 65 | 1011.9 |
| 20260508170020 | 53 | 186 | 3.0 | 6.0 | 0.00 | 0.05 | 0.05 | 63 | 1012.0 |
| 20260508165546 | 53 | 185 | 3.0 | 6.0 | 0.00 | 0.05 | 0.05 | 64 | 1012.0 |
| 20260508165029 | 53 | 203 | 2.0 | 6.0 | 0.00 | 0.05 | 0.05 | 66 | 1012.1 |
| 20260508164519 | 52 | 246 | 3.0 | 5.0 | 0.00 | 0.05 | 0.05 | 66 | 1012.1 |
| 20260508164039 | 52 | 235 | 3.0 | 6.0 | 0.00 | 0.05 | 0.05 | 69 | 1012.1 |
| 20260508163535 | 51 | 197 | 4.0 | 6.0 | 0.00 | 0.05 | 0.05 | 68 | 1012.2 |
| 20260508163029 | 52 | 195 | 4.0 | 8.0 | 0.00 | 0.05 | 0.05 | 67 | 1012.2 |
| 20260508162517 | 51 | 278 | 3.0 | 8.0 | 0.00 | 0.05 | 0.05 | 68 | 1012.2 |
| 20260508162034 | 51 | 203 | 4.0 | 7.0 | 0.00 | 0.05 | 0.05 | 67 | 1012.2 |
| 20260508161540 | 51 | 197 | 3.0 | 8.0 | 0.00 | 0.05 | 0.05 | 68 | 1012.4 |
| 20260508161048 | 51 | 210 | 3.0 | 8.0 | 0.00 | 0.05 | 0.05 | 68 | 1012.3 |